| time (UTC) | temp F | wind direction | speed knots | gust knots | rain 1hr in | rain 24hr in | rain mn in | humidity % | barometer mb |
| 20260503010027 | 60 | 304 | 1.7 | 4.3 | 0.00 | 0.00 | 0.00 | 41 | 1007.1 |
| 20260503005523 | 60 | 204 | 1.7 | 2.6 | 0.00 | 0.00 | 0.00 | 40 | 1007.1 |
| 20260503005021 | 60 | 200 | 0.0 | 2.6 | 0.00 | 0.00 | 0.00 | 41 | 1006.9 |
| 20260503004516 | 60 | 280 | 0.0 | 4.3 | 0.00 | 0.00 | 0.00 | 41 | 1006.9 |
| 20260503004015 | 60 | 224 | 1.7 | 3.5 | 0.00 | 0.00 | 0.00 | 39 | 1007.2 |
| 20260503003511 | 60 | 246 | 0.9 | 3.5 | 0.00 | 0.00 | 0.00 | 40 | 1007.2 |
| 20260503003009 | 60 | 212 | 0.0 | 1.7 | 0.00 | 0.00 | 0.00 | 40 | 1007.3 |
| 20260503002506 | 60 | 314 | 0.9 | 2.6 | 0.00 | 0.00 | 0.00 | 41 | 1007.1 |
| 20260503002002 | 60 | 114 | 0.0 | 2.6 | 0.00 | 0.00 | 0.00 | 40 | 1007.2 |
| 20260503001459 | 60 | 19 | 2.6 | 2.6 | 0.00 | 0.00 | 0.00 | 39 | 1007.3 |
| 20260503000956 | 60 | 221 | 0.9 | 2.6 | 0.00 | 0.00 | 0.00 | 38 | 1007.2 |
| 20260503000453 | 60 | 128 | 1.7 | 4.3 | 0.00 | 0.00 | 0.00 | 39 | 1007.4 |
| 20260502235950 | 61 | 205 | 0.0 | 2.6 | 0.00 | 0.00 | 0.00 | 39 | 1007.3 |
| 20260502235447 | 61 | 302 | 0.9 | 2.6 | 0.00 | 0.00 | 0.00 | 37 | 1007.4 |
| 20260502234944 | 61 | 24 | 0.0 | 2.6 | 0.00 | 0.00 | 0.00 | 39 | 1007.5 |
| 20260502234441 | 61 | 271 | 0.0 | 4.3 | 0.00 | 0.00 | 0.00 | 37 | 1007.5 |
| 20260502233938 | 61 | 255 | 1.7 | 6.1 | 0.00 | 0.00 | 0.00 | 36 | 1007.3 |
| 20260502233433 | 62 | 44 | 1.7 | 5.2 | 0.00 | 0.00 | 0.00 | 36 | 1007.8 |
| 20260502232931 | 62 | 231 | 0.0 | 5.2 | 0.00 | 0.00 | 0.00 | 38 | 1007.6 |
| 20260502232427 | 62 | 268 | 2.6 | 5.2 | 0.00 | 0.00 | 0.00 | 35 | 1007.5 |
| 20260502231924 | 62 | 114 | 1.7 | 5.2 | 0.00 | 0.00 | 0.00 | 35 | 1007.6 |
| 20260502231421 | 62 | 45 | 0.9 | 4.3 | 0.00 | 0.00 | 0.00 | 37 | 1007.5 |
| 20260502230919 | 62 | 294 | 3.5 | 7.8 | 0.00 | 0.00 | 0.00 | 35 | 1007.8 |
| 20260502230417 | 62 | 126 | 1.7 | 5.2 | 0.00 | 0.00 | 0.00 | 35 | 1007.7 |
| 20260502225915 | 62 | 332 | 2.6 | 3.5 | 0.00 | 0.00 | 0.00 | 34 | 1007.6 |
| 20260502225411 | 62 | 19 | 0.9 | 4.3 | 0.00 | 0.00 | 0.00 | 35 | 1007.6 |
| 20260502224908 | 62 | 29 | 0.9 | 7.0 | 0.00 | 0.00 | 0.00 | 34 | 1007.8 |
| 20260502224403 | 62 | 269 | 2.6 | 7.8 | 0.00 | 0.00 | 0.00 | 35 | 1008.1 |
| 20260502223901 | 62 | 303 | 2.6 | 6.1 | 0.00 | 0.00 | 0.00 | 34 | 1008.0 |
| 20260502223358 | 63 | 261 | 3.5 | 8.7 | 0.00 | 0.00 | 0.00 | 33 | 1008.2 |
| 20260502222856 | 65 | 257 | 0.9 | 6.1 | 0.00 | 0.00 | 0.00 | 32 | 1008.2 |
| 20260502222348 | 64 | 348 | 2.6 | 6.1 | 0.00 | 0.00 | 0.00 | 32 | 1008.3 |
| 20260502221843 | 64 | 232 | 3.5 | 4.3 | 0.00 | 0.00 | 0.00 | 33 | 1008.2 |
| 20260502221340 | 64 | 18 | 1.7 | 9.6 | 0.00 | 0.00 | 0.00 | 34 | 1008.1 |
| 20260502220837 | 65 | 1 | 5.2 | 9.6 | 0.00 | 0.00 | 0.00 | 32 | 1008.5 |
| 20260502220333 | 64 | 111 | 0.9 | 12.2 | 0.00 | 0.00 | 0.00 | 32 | 1008.3 |
| 20260502215830 | 64 | 173 | 1.7 | 8.7 | 0.00 | 0.00 | 0.00 | 32 | 1008.6 |
| 20260502215327 | 64 | 308 | 5.2 | 13.0 | 0.00 | 0.00 | 0.00 | 32 | 1008.6 |
| 20260502214824 | 64 | 322 | 3.5 | 9.6 | 0.00 | 0.00 | 0.00 | 32 | 1008.7 |
| 20260502214320 | 64 | 247 | 1.7 | 10.4 | 0.00 | 0.00 | 0.00 | 33 | 1008.6 |
| 20260502213818 | 64 | 179 | 1.7 | 19.1 | 0.00 | 0.00 | 0.00 | 33 | 1008.6 |
| 20260502213315 | 65 | 216 | 2.6 | 11.3 | 0.00 | 0.00 | 0.00 | 32 | 1008.6 |
| 20260502212814 | 65 | 347 | 2.6 | 5.2 | 0.00 | 0.00 | 0.00 | 32 | 1008.8 |
| 20260502212311 | 65 | 46 | 2.6 | 7.8 | 0.00 | 0.00 | 0.00 | 32 | 1008.9 |
| 20260502211808 | 64 | 97 | 0.9 | 5.2 | 0.00 | 0.00 | 0.00 | 36 | 1009.1 |
| 20260502211258 | 62 | 217 | 3.5 | 5.2 | 0.00 | 0.00 | 0.00 | 35 | 1008.9 |
| 20260502210755 | 63 | 291 | 3.5 | 9.6 | 0.00 | 0.00 | 0.00 | 32 | 1009.1 |
| 20260502210252 | 63 | 302 | 1.7 | 8.7 | 0.00 | 0.00 | 0.00 | 32 | 1009.1 |
| 20260502205749 | 65 | 286 | 2.6 | 4.3 | 0.00 | 0.00 | 0.00 | 32 | 1009.4 |
| 20260502205240 | 65 | 108 | 1.7 | 5.2 | 0.00 | 0.00 | 0.00 | 30 | 1009.5 |
| 20260502204738 | 64 | 247 | 2.6 | 7.0 | 0.00 | 0.00 | 0.00 | 32 | 1009.2 |
| 20260502204235 | 64 | 222 | 1.7 | 11.3 | 0.00 | 0.00 | 0.00 | 31 | 1009.5 |
| 20260502203732 | 64 | 185 | 1.7 | 8.7 | 0.00 | 0.00 | 0.00 | 32 | 1009.6 |
| 20260502203230 | 65 | 280 | 1.7 | 4.3 | 0.00 | 0.00 | 0.00 | 34 | 1009.5 |
| 20260502202724 | 63 | 232 | 3.5 | 7.8 | 0.00 | 0.00 | 0.00 | 36 | 1009.8 |
| 20260502202223 | 63 | 346 | 3.5 | 9.6 | 0.00 | 0.00 | 0.00 | 31 | 1009.6 |
| 20260502201720 | 64 | 359 | 1.7 | 6.1 | 0.00 | 0.00 | 0.00 | 34 | 1009.9 |
| 20260502201216 | 64 | 231 | 1.7 | 5.2 | 0.00 | 0.00 | 0.00 | 32 | 1009.9 |
| 20260502200712 | 63 | 21 | 3.5 | 8.7 | 0.00 | 0.00 | 0.00 | 33 | 1010.0 |
| 20260502200209 | 64 | 205 | 1.7 | 7.0 | 0.00 | 0.00 | 0.00 | 31 | 1010.2 |
| 20260502195707 | 62 | 210 | 1.7 | 9.6 | 0.00 | 0.00 | 0.00 | 33 | 1010.2 |
| 20260502195203 | 63 | 201 | 2.6 | 6.1 | 0.00 | 0.00 | 0.00 | 37 | 1010.2 |
| 20260502194659 | 62 | 24 | 0.0 | 7.8 | 0.00 | 0.00 | 0.00 | 31 | 1010.3 |
| 20260502194150 | 63 | 62 | 2.6 | 9.6 | 0.00 | 0.00 | 0.00 | 32 | 1010.5 |
| 20260502193647 | 63 | 238 | 2.6 | 4.3 | 0.00 | 0.00 | 0.00 | 37 | 1010.4 |
| 20260502193144 | 61 | 175 | 0.0 | 7.0 | 0.00 | 0.00 | 0.00 | 34 | 1010.4 |
| 20260502192639 | 61 | 294 | 5.2 | 8.7 | 0.00 | 0.00 | 0.00 | 31 | 1010.7 |
| 20260502192137 | 63 | 206 | 1.7 | 4.3 | 0.00 | 0.00 | 0.00 | 38 | 1010.9 |
| 20260502191633 | 62 | 219 | 4.3 | 6.1 | 0.00 | 0.00 | 0.00 | 31 | 1010.9 |
| 20260502191125 | 61 | 186 | 0.9 | 3.5 | 0.00 | 0.00 | 0.00 | 38 | 1010.9 |
| 20260502190623 | 61 | 279 | 1.7 | 5.2 | 0.00 | 0.00 | 0.00 | 35 | 1010.9 |
| 20260502190121 | 60 | 259 | 2.6 | 12.2 | 0.00 | 0.00 | 0.00 | 34 | 1011.0 |
| 20260502185615 | 62 | 250 | 1.7 | 5.2 | 0.00 | 0.00 | 0.00 | 37 | 1011.2 |
| 20260502185112 | 61 | 294 | 2.6 | 6.1 | 0.00 | 0.00 | 0.00 | 34 | 1011.3 |
| 20260502184608 | 60 | 248 | 4.3 | 7.8 | 0.00 | 0.00 | 0.00 | 31 | 1011.3 |
| 20260502184103 | 60 | 260 | 3.5 | 9.6 | 0.00 | 0.00 | 0.00 | 32 | 1011.6 |
| 20260502183600 | 60 | 30 | 0.9 | 6.1 | 0.00 | 0.00 | 0.00 | 35 | 1011.6 |
| 20260502183056 | 61 | 233 | 1.7 | 7.8 | 0.00 | 0.00 | 0.00 | 32 | 1011.7 |
| 20260502182552 | 60 | 223 | 1.7 | 8.7 | 0.00 | 0.00 | 0.00 | 34 | 1011.9 |
| 20260502182047 | 60 | 310 | 1.7 | 7.0 | 0.00 | 0.00 | 0.00 | 33 | 1011.6 |
| 20260502181545 | 59 | 53 | 2.6 | 10.4 | 0.00 | 0.00 | 0.00 | 34 | 1011.8 |
| 20260502181043 | 59 | 246 | 2.6 | 11.3 | 0.00 | 0.00 | 0.00 | 35 | 1011.9 |
| 20260502180541 | 60 | 55 | 4.3 | 11.3 | 0.00 | 0.00 | 0.00 | 34 | 1012.0 |
| 20260502170454 | 58 | 247 | 3.5 | 8.7 | 0.00 | 0.00 | 0.00 | 35 | 1012.7 |
| 20260502163937 | 57 | 238 | 0.9 | 4.3 | 0.00 | 0.00 | 0.00 | 36 | 1013.0 |
| 20260502163433 | 55 | 229 | 2.6 | 7.0 | 0.00 | 0.00 | 0.00 | 38 | 1013.1 |
| 20260502162931 | 56 | 320 | 5.2 | 11.3 | 0.00 | 0.00 | 0.00 | 37 | 1012.9 |
| 20260502162428 | 57 | 314 | 9.6 | 12.2 | 0.00 | 0.00 | 0.00 | 36 | 1012.9 |
| 20260502161926 | 56 | 203 | 0.9 | 12.2 | 0.00 | 0.00 | 0.00 | 38 | 1013.1 |
| 20260502161421 | 57 | 310 | 11.3 | 12.2 | 0.00 | 0.00 | 0.00 | 36 | 1013.2 |
| 20260502160919 | 56 | 79 | 1.7 | 13.0 | 0.00 | 0.00 | 0.00 | 36 | 1013.1 |
| 20260502160417 | 55 | 83 | 2.6 | 13.9 | 0.00 | 0.00 | 0.00 | 39 | 1013.1 |
| 20260502151855 | 55 | 336 | 3.5 | 12.2 | 0.00 | 0.00 | 0.00 | 41 | 1013.2 |
| 20260502151351 | 56 | 111 | 1.7 | 10.4 | 0.00 | 0.00 | 0.00 | 40 | 1013.5 |
| 20260502150850 | 56 | 263 | 2.6 | 9.6 | 0.00 | 0.00 | 0.00 | 40 | 1013.5 |
| 20260502150345 | 54 | 194 | 2.6 | 7.8 | 0.00 | 0.00 | 0.00 | 44 | 1013.5 |
| 20260502130734 | 47 | 249 | 1.7 | 4.3 | 0.00 | 0.00 | 0.00 | 55 | 1013.6 |
| 20260502130231 | 48 | 226 | 1.7 | 2.6 | 0.00 | 0.00 | 0.00 | 57 | 1013.4 |
| 20260502123717 | 44 | 262 | 1.7 | 5.2 | 0.00 | 0.00 | 0.00 | 58 | 1013.7 |
| 20260502123214 | 43 | 355 | 0.0 | 5.2 | 0.00 | 0.00 | 0.00 | 60 | 1013.7 |
| 20260502122710 | 43 | 357 | 0.9 | 5.2 | 0.00 | 0.00 | 0.00 | 60 | 1013.8 |
| 20260502122207 | 42 | 235 | 0.0 | 3.5 | 0.00 | 0.00 | 0.00 | 60 | 1013.8 |
| 20260502121705 | 42 | 291 | 2.6 | 5.2 | 0.00 | 0.00 | 0.00 | 60 | 1013.8 |
| 20260502121203 | 41 | 354 | 1.7 | 4.3 | 0.00 | 0.00 | 0.00 | 61 | 1013.7 |
| 20260502120659 | 41 | 4 | 0.9 | 4.3 | 0.00 | 0.00 | 0.00 | 62 | 1013.6 |
| 20260502120156 | 40 | 276 | 1.7 | 5.2 | 0.00 | 0.00 | 0.00 | 64 | 1013.6 |
| 20260502115654 | 38 | 282 | 0.0 | 4.3 | 0.00 | 0.00 | 0.00 | 66 | 1013.5 |
| 20260502115149 | 37 | 256 | 0.9 | 5.2 | 0.00 | 0.00 | 0.00 | 68 | 1013.7 |
| 20260502114646 | 37 | 294 | 2.6 | 5.2 | 0.00 | 0.00 | 0.00 | 67 | 1013.5 |
| 20260502114143 | 37 | 104 | 0.9 | 3.5 | 0.00 | 0.00 | 0.00 | 67 | 1013.5 |
| 20260502113641 | 37 | 174 | 0.0 | 6.1 | 0.00 | 0.00 | 0.00 | 67 | 1013.6 |
| 20260502113139 | 37 | 287 | 0.0 | 3.5 | 0.00 | 0.00 | 0.00 | 68 | 1013.5 |
| 20260502112636 | 35 | 85 | 1.7 | 5.2 | 0.00 | 0.00 | 0.00 | 70 | 1013.6 |
| 20260502112134 | 35 | 53 | 0.0 | 2.6 | 0.00 | 0.00 | 0.00 | 72 | 1013.7 |
| 20260502111631 | 34 | 273 | 0.0 | 4.3 | 0.00 | 0.00 | 0.00 | 72 | 1013.5 |
| 20260502111128 | 34 | 329 | 0.9 | 4.3 | 0.00 | 0.00 | 0.00 | 72 | 1013.6 |
| 20260502110620 | 34 | 276 | 1.7 | 5.2 | 0.00 | 0.00 | 0.00 | 73 | 1013.4 |
| 20260502110117 | 34 | 243 | 0.0 | 2.6 | 0.00 | 0.00 | 0.00 | 73 | 1013.6 |
| 20260502105615 | 33 | 295 | 0.9 | 2.6 | 0.00 | 0.00 | 0.00 | 74 | 1013.3 |
| 20260502105112 | 33 | 337 | 0.9 | 1.7 | 0.00 | 0.00 | 0.00 | 75 | 1013.4 |
| 20260502104609 | 33 | 171 | 0.9 | 3.5 | 0.00 | 0.00 | 0.00 | 75 | 1013.5 |
| 20260502104106 | 33 | 356 | 0.0 | 2.6 | 0.00 | 0.00 | 0.00 | 75 | 1013.5 |
| 20260502103604 | 34 | 197 | 0.0 | 2.6 | 0.00 | 0.00 | 0.00 | 73 | 1013.4 |
| 20260502103102 | 34 | 262 | 2.6 | 3.5 | 0.00 | 0.00 | 0.00 | 73 | 1013.4 |
| 20260502102557 | 34 | 339 | 0.0 | 3.5 | 0.00 | 0.00 | 0.00 | 73 | 1013.4 |
| 20260502102055 | 34 | 252 | 0.0 | 4.3 | 0.00 | 0.00 | 0.00 | 73 | 1013.4 |
| 20260502101553 | 34 | 280 | 0.0 | 3.5 | 0.00 | 0.00 | 0.00 | 72 | 1013.6 |
| 20260502101051 | 35 | 255 | 1.7 | 4.3 | 0.00 | 0.00 | 0.00 | 72 | 1013.7 |
| 20260502100549 | 35 | 227 | 0.9 | 2.6 | 0.00 | 0.00 | 0.00 | 72 | 1013.6 |
| 20260502091524 | 35 | 257 | 0.0 | 1.7 | 0.00 | 0.00 | 0.00 | 70 | 1013.6 |
| 20260502091021 | 36 | 240 | 0.9 | 0.9 | 0.00 | 0.00 | 0.00 | 70 | 1013.5 |
| 20260502090518 | 36 | 217 | 0.0 | 1.7 | 0.00 | 0.00 | 0.00 | 70 | 1013.4 |
| 20260502071407 | 37 | 220 | 0.9 | 2.6 | 0.00 | 0.00 | 0.00 | 66 | 1013.7 |
| 20260502070905 | 37 | 225 | 0.9 | 2.6 | 0.00 | 0.00 | 0.00 | 67 | 1013.7 |
| 20260502070402 | 37 | 323 | 0.0 | 1.7 | 0.00 | 0.00 | 0.00 | 67 | 1013.7 |
| 20260502065901 | 37 | 293 | 0.9 | 1.7 | 0.00 | 0.00 | 0.00 | 66 | 1013.9 |
| 20260502065359 | 37 | 244 | 0.0 | 1.7 | 0.00 | 0.00 | 0.00 | 68 | 1013.9 |
| 20260502064856 | 36 | 49 | 0.0 | 0.9 | 0.00 | 0.00 | 0.00 | 69 | 1013.7 |
| 20260502064354 | 36 | 267 | 0.0 | 1.7 | 0.00 | 0.00 | 0.00 | 69 | 1013.8 |
| 20260502063851 | 36 | 345 | 0.0 | 1.7 | 0.00 | 0.00 | 0.00 | 70 | 1014.1 |
| 20260502063349 | 36 | 337 | 1.7 | 1.7 | 0.00 | 0.00 | 0.00 | 70 | 1013.8 |
| 20260502062846 | 36 | 310 | 0.0 | 1.7 | 0.00 | 0.00 | 0.00 | 68 | 1013.8 |
| 20260502062343 | 37 | 269 | 0.0 | 1.7 | 0.00 | 0.00 | 0.00 | 69 | 1014.0 |
| 20260502061842 | 37 | 282 | 0.9 | 1.7 | 0.00 | 0.00 | 0.00 | 69 | 1014.0 |
| 20260502061339 | 36 | 273 | 0.9 | 1.7 | 0.00 | 0.00 | 0.00 | 71 | 1014.0 |
| 20260502060835 | 36 | 350 | 0.0 | 0.9 | 0.00 | 0.00 | 0.00 | 71 | 1014.0 |
| 20260502060330 | 35 | 25 | 0.0 | 2.6 | 0.00 | 0.00 | 0.00 | 73 | 1014.1 |
| 20260502055828 | 36 | 0 | 0.0 | 1.7 | 0.00 | 0.00 | 0.00 | 70 | 1014.0 |
| 20260502055326 | 37 | 346 | 0.0 | 1.7 | 0.00 | 0.00 | 0.00 | 67 | 1013.9 |
| 20260502054825 | 38 | 297 | 0.0 | 1.7 | 0.00 | 0.00 | 0.00 | 66 | 1013.8 |
| 20260502054323 | 38 | 208 | 0.9 | 1.7 | 0.00 | 0.00 | 0.00 | 67 | 1013.7 |
| 20260502053820 | 38 | 258 | 0.9 | 1.7 | 0.00 | 0.00 | 0.00 | 67 | 1013.9 |
| 20260502053317 | 38 | 259 | 0.0 | 1.7 | 0.00 | 0.00 | 0.00 | 66 | 1013.9 |
| 20260502052815 | 37 | 290 | 0.0 | 0.9 | 0.00 | 0.00 | 0.00 | 66 | 1013.8 |
| 20260502052312 | 37 | 254 | 0.0 | 0.9 | 0.00 | 0.00 | 0.00 | 66 | 1013.8 |
| 20260502051810 | 38 | 224 | 0.0 | 0.9 | 0.00 | 0.00 | 0.00 | 66 | 1013.8 |
| 20260502051309 | 38 | 255 | 0.9 | 1.7 | 0.00 | 0.00 | 0.00 | 66 | 1013.7 |
| 20260502050804 | 38 | 321 | 0.0 | 1.7 | 0.00 | 0.00 | 0.00 | 66 | 1013.8 |
| 20260502050301 | 38 | 304 | 0.0 | 0.9 | 0.00 | 0.00 | 0.00 | 66 | 1013.7 |
| 20260502045758 | 38 | 184 | 0.0 | 0.9 | 0.00 | 0.00 | 0.00 | 66 | 1013.7 |
| 20260502045255 | 39 | 149 | 0.0 | 0.9 | 0.00 | 0.00 | 0.00 | 65 | 1013.9 |
| 20260502044752 | 39 | 203 | 0.0 | 1.7 | 0.00 | 0.00 | 0.00 | 64 | 1013.7 |
| 20260502044248 | 39 | 197 | 0.0 | 1.7 | 0.00 | 0.00 | 0.00 | 63 | 1013.8 |
| 20260502043745 | 39 | 193 | 0.0 | 0.9 | 0.00 | 0.00 | 0.00 | 62 | 1013.8 |
| 20260502043243 | 39 | 197 | 0.0 | 1.7 | 0.00 | 0.00 | 0.00 | 62 | 1013.6 |
| 20260502042742 | 39 | 171 | 0.0 | 0.9 | 0.00 | 0.00 | 0.00 | 64 | 1013.8 |
| 20260502042240 | 39 | 279 | 0.0 | 0.9 | 0.00 | 0.00 | 0.00 | 62 | 1013.7 |
| 20260502041737 | 39 | 234 | 0.0 | 1.7 | 0.00 | 0.00 | 0.00 | 62 | 1013.7 |
| 20260502041234 | 38 | 286 | 0.0 | 1.7 | 0.00 | 0.00 | 0.00 | 63 | 1013.8 |
| 20260502040731 | 36 | 287 | 0.0 | 1.7 | 0.00 | 0.00 | 0.00 | 69 | 1013.9 |
| 20260502040228 | 36 | 9 | 0.0 | 0.9 | 0.00 | 0.00 | 0.00 | 68 | 1013.7 |
| 20260502035724 | 37 | 311 | 0.0 | 1.7 | 0.00 | 0.00 | 0.00 | 67 | 1013.7 |
| 20260502035221 | 37 | 325 | 0.0 | 1.7 | 0.00 | 0.00 | 0.00 | 67 | 1013.7 |
| 20260502034718 | 37 | 325 | 0.0 | 1.7 | 0.00 | 0.00 | 0.00 | 67 | 1013.9 |
| 20260502034217 | 37 | 13 | 0.0 | 0.0 | 0.00 | 0.00 | 0.00 | 67 | 1013.8 |
| 20260502033714 | 37 | 326 | 0.0 | 0.9 | 0.00 | 0.00 | 0.00 | 67 | 1013.9 |
| 20260502033212 | 38 | 359 | 0.9 | 1.7 | 0.00 | 0.00 | 0.00 | 66 | 1013.9 |
| 20260502032708 | 38 | 4 | 0.9 | 1.7 | 0.00 | 0.00 | 0.00 | 64 | 1013.7 |
| 20260502032204 | 39 | 338 | 0.9 | 0.9 | 0.00 | 0.00 | 0.00 | 62 | 1013.7 |
| 20260502031702 | 39 | 336 | 0.0 | 0.9 | 0.00 | 0.00 | 0.00 | 62 | 1013.7 |
| 20260502031200 | 40 | 345 | 0.9 | 1.7 | 0.00 | 0.00 | 0.00 | 61 | 1013.9 |
| 20260502030659 | 39 | 339 | 0.9 | 2.6 | 0.00 | 0.00 | 0.00 | 60 | 1013.7 |
| 20260502030156 | 39 | 334 | 0.0 | 0.9 | 0.00 | 0.00 | 0.00 | 62 | 1013.8 |
| 20260502025653 | 38 | 325 | 0.0 | 0.9 | 0.00 | 0.00 | 0.00 | 61 | 1013.9 |
| 20260502025151 | 39 | 19 | 0.0 | 0.9 | 0.00 | 0.00 | 0.00 | 60 | 1013.7 |
| 20260502024649 | 40 | 304 | 0.0 | 0.9 | 0.00 | 0.00 | 0.00 | 58 | 1013.9 |
| 20260502024147 | 41 | 19 | 0.0 | 1.7 | 0.00 | 0.00 | 0.00 | 55 | 1013.6 |
| 20260502023644 | 41 | 326 | 0.0 | 1.7 | 0.00 | 0.00 | 0.00 | 53 | 1013.7 |
| 20260502023141 | 40 | 312 | 1.7 | 1.7 | 0.00 | 0.00 | 0.00 | 55 | 1013.5 |
| 20260502022638 | 39 | 327 | 0.0 | 1.7 | 0.00 | 0.00 | 0.00 | 57 | 1013.8 |
| 20260502022135 | 40 | 304 | 0.0 | 0.9 | 0.00 | 0.00 | 0.00 | 56 | 1013.6 |
| 20260502021633 | 41 | 315 | 0.0 | 1.7 | 0.00 | 0.00 | 0.00 | 56 | 1013.6 |
| 20260502021130 | 42 | 318 | 0.0 | 1.7 | 0.00 | 0.00 | 0.00 | 53 | 1013.5 |
| 20260502020627 | 43 | 295 | 0.0 | 1.7 | 0.00 | 0.00 | 0.00 | 52 | 1013.4 |
| 20260502020123 | 43 | 249 | 0.0 | 1.7 | 0.00 | 0.00 | 0.00 | 50 | 1013.5 |
| 20260502015622 | 44 | 262 | 0.0 | 1.7 | 0.00 | 0.00 | 0.00 | 49 | 1013.5 |
| 20260502015118 | 45 | 297 | 0.0 | 1.7 | 0.00 | 0.00 | 0.00 | 50 | 1013.6 |
| 20260502014615 | 46 | 304 | 0.0 | 1.7 | 0.00 | 0.00 | 0.00 | 45 | 1013.2 |
| 20260502014112 | 46 | 347 | 0.9 | 1.7 | 0.00 | 0.00 | 0.00 | 45 | 1013.2 |
| 20260502013608 | 47 | 353 | 1.7 | 2.6 | 0.00 | 0.00 | 0.00 | 44 | 1013.4 |
| 20260502013104 | 47 | 348 | 1.7 | 4.3 | 0.00 | 0.00 | 0.00 | 43 | 1013.2 |
| 20260502012602 | 47 | 349 | 0.0 | 2.6 | 0.00 | 0.00 | 0.00 | 43 | 1013.2 |
| 20260502012059 | 47 | 347 | 0.0 | 3.5 | 0.00 | 0.00 | 0.00 | 44 | 1013.1 |
| 20260502011555 | 47 | 341 | 2.6 | 4.3 | 0.00 | 0.00 | 0.00 | 44 | 1013.2 |
| 20260502011052 | 47 | 344 | 1.7 | 2.6 | 0.00 | 0.00 | 0.00 | 44 | 1013.2 |
| 20260502010549 | 47 | 345 | 1.7 | 2.6 | 0.00 | 0.00 | 0.00 | 44 | 1013.1 |